• In Russia
  • List of Countries
  • For 7 days
  • Water Temperature
  • Satellite Maps
  • Weather Map
  • Weather Widgets
  • user-avatar
    Login

    Hourly Weather Honholoy

    Today, 19 July, Thursday

    Time Temperature Precipitation Wind Pressure Humidity
    00:00 +15°C° 0 mm 1 mps 683 mmHg 95%
    01:00 +15°C° 0 mm 1 mps 683 mmHg 96%
    02:00 +15°C° 0 mm 1 mps 683 mmHg 96%
    03:00 +14°C° 0 mm 1 mps 683 mmHg 97%
    04:00 +14°C° 0 mm 1 mps 683 mmHg 97%
    05:00 +15°C° 0 mm 1 mps 683 mmHg 94%
    06:00 +18°C° 0 mm 1 mps 683 mmHg 91%
    07:00 +20°C° 0 mm 1 mps 684 mmHg 87%
    08:00 +21°C° 0 mm 1 mps 684 mmHg 79%
    09:00 +23°C° 0 mm 2 mps 684 mmHg 71%
    10:00 +24°C° 0 mm 2 mps 684 mmHg 64%
    11:00 +25°C° 0.1 mm 2 mps 684 mmHg 60%
    12:00 +27°C° 0.1 mm 2 mps 683 mmHg 56%
    13:00 +27°C° 0 mm 2 mps 684 mmHg 54%
    14:00 +28°C° 0 mm 2 mps 683 mmHg 52%
    15:00 +28°C° 0 mm 2 mps 683 mmHg 49%
    16:00 +28°C° 0 mm 2 mps 683 mmHg 47%
    17:00 +27°C° 0 mm 2 mps 682 mmHg 54%
    18:00 +26°C° 0 mm 2 mps 682 mmHg 61%
    19:00 +24°C° 0 mm 2 mps 682 mmHg 68%
    20:00 +23°C° 0 mm 2 mps 681 mmHg 75%
    21:00 +20°C° 0 mm 2 mps 681 mmHg 81%
    22:00 +18°C° 0 mm 2 mps 681 mmHg 88%
    23:00 +18°C° 0 mm 2 mps 681 mmHg 90%

    Tomorrow, 20 July, Friday

    Time Temperature Precipitation Wind Pressure Humidity
    00:00 +17°C° 0 mm 2 mps 680 mmHg 92%
    01:00 +18°C° 0 mm 1 mps 680 mmHg 93%
    02:00 +18°C° 0 mm 1 mps 680 mmHg 94%
    03:00 +16°C° 0 mm 1 mps 680 mmHg 95%
    04:00 +16°C° 0 mm 1 mps 680 mmHg 96%
    05:00 +19°C° 0.4 mm 1 mps 680 mmHg 91%
    06:00 +20°C° 0.4 mm 1 mps 680 mmHg 85%
    07:00 +22°C° 0.4 mm 1 mps 680 mmHg 80%
    08:00 +24°C° 0.1 mm 1 mps 680 mmHg 72%
    09:00 +26°C° 0.1 mm 2 mps 680 mmHg 64%
    10:00 +28°C° 0.1 mm 2 mps 681 mmHg 56%
    11:00 +30°C° 0 mm 2 mps 680 mmHg 52%
    12:00 +31°C° 0 mm 2 mps 680 mmHg 48%
    13:00 +32°C° 0 mm 2 mps 680 mmHg 44%
    14:00 +29°C° 0.7 mm 2 mps 680 mmHg 57%
    15:00 +27°C° 0.7 mm 2 mps 679 mmHg 70%
    16:00 +25°C° 0.7 mm 2 mps 679 mmHg 83%
    17:00 +24°C° 1.1 mm 2 mps 679 mmHg 86%
    18:00 +23°C° 1.1 mm 2 mps 679 mmHg 89%
    19:00 +20°C° 1.1 mm 2 mps 679 mmHg 91%
    20:00 +21°C° 1.4 mm 1 mps 679 mmHg 92%
    21:00 +20°C° 1.4 mm 1 mps 678 mmHg 93%
    22:00 +19°C° 1.4 mm 1 mps 678 mmHg 93%
    23:00 +19°C° 0.8 mm 1 mps 678 mmHg 94%

    Day after tomorrow, 21 July, Saturday

    Time Temperature Precipitation Wind Pressure Humidity
    00:00 +18°C° 0.8 mm 1 mps 678 mmHg 95%
    01:00 +16°C° 0.8 mm 0 mps 677 mmHg 95%
    02:00 +18°C° 0.6 mm 1 mps 677 mmHg 96%
    03:00 +16°C° 0.6 mm 1 mps 677 mmHg 97%
    04:00 +16°C° 0.6 mm 1 mps 677 mmHg 97%
    05:00 +16°C° 1.1 mm 2 mps 678 mmHg 96%
    06:00 +16°C° 1.1 mm 2 mps 678 mmHg 95%
    07:00 +16°C° 1.1 mm 3 mps 678 mmHg 94%
    08:00 +16°C° 0.4 mm 3 mps 678 mmHg 93%
    09:00 +17°C° 0.4 mm 3 mps 679 mmHg 91%
    10:00 +17°C° 0.4 mm 3 mps 679 mmHg 90%
    11:00 +17°C° 0.6 mm 3 mps 679 mmHg 89%
    12:00 +17°C° 0.6 mm 3 mps 680 mmHg 89%
    13:00 +17°C° 0.6 mm 4 mps 680 mmHg 88%
    14:00 +17°C° 0.3 mm 4 mps 680 mmHg 86%
    15:00 +17°C° 0.3 mm 4 mps 681 mmHg 85%
    16:00 +16°C° 0.3 mm 5 mps 681 mmHg 83%
    17:00 +17°C° 0.1 mm 4 mps 681 mmHg 83%
    18:00 +15°C° 0.1 mm 4 mps 682 mmHg 83%
    19:00 +14°C° 0.1 mm 4 mps 682 mmHg 83%
    20:00 +14°C° 0 mm 4 mps 682 mmHg 84%
    21:00 +13°C° 0 mm 4 mps 682 mmHg 86%
    22:00 +13°C° 0 mm 4 mps 682 mmHg 88%
    23:00 +12°C° 0.1 mm 4 mps 683 mmHg 89%

    22 July, Sunday

    Time Temperature Precipitation Wind Pressure Humidity
    00:00 +12°C° 0.1 mm 4 mps 683 mmHg 89%
    01:00 +12°C° 0.1 mm 4 mps 683 mmHg 90%
    02:00 +12°C° 0.1 mm 4 mps 683 mmHg 90%
    03:00 +12°C° 0.1 mm 4 mps 683 mmHg 91%
    04:00 +12°C° 0.1 mm 4 mps 683 mmHg 91%
    05:00 +12°C° 0.1 mm 4 mps 684 mmHg 89%
    06:00 +12°C° 0.1 mm 5 mps 684 mmHg 87%
    07:00 +12°C° 0.1 mm 5 mps 684 mmHg 85%
    08:00 +13°C° 0 mm 5 mps 685 mmHg 80%
    09:00 +13°C° 0 mm 5 mps 685 mmHg 75%
    10:00 +14°C° 0 mm 5 mps 685 mmHg 70%
    11:00 +16°C° 0 mm 5 mps 686 mmHg 62%
    12:00 +19°C° 0 mm 5 mps 686 mmHg 53%
    13:00 +21°C° 0 mm 5 mps 686 mmHg 45%
    14:00 +22°C° 0 mm 5 mps 686 mmHg 43%
    15:00 +22°C° 0 mm 5 mps 686 mmHg 42%
    16:00 +22°C° 0 mm 4 mps 686 mmHg 40%
    17:00 +21°C° 0 mm 3 mps 686 mmHg 48%
    18:00 +19°C° 0 mm 2 mps 686 mmHg 55%
    19:00 +18°C° 0 mm 1 mps 686 mmHg 62%
    20:00 +16°C° 0 mm 1 mps 685 mmHg 68%
    21:00 +14°C° 0 mm 1 mps 685 mmHg 74%
    22:00 +11°C° 0 mm 0 mps 685 mmHg 80%
    23:00 +10°C° 0 mm 0 mps 685 mmHg 81%

    23 July, Monday

    Time Temperature Precipitation Wind Pressure Humidity
    00:00 +10°C° 0 mm 0 mps 685 mmHg 83%
    01:00 +11°C° 0 mm 1 mps 685 mmHg 84%
    02:00 +10°C° 0 mm 1 mps 685 mmHg 85%
    03:00 +10°C° 0 mm 1 mps 685 mmHg 86%
    04:00 +10°C° 0 mm 1 mps 685 mmHg 87%
    05:00 +12°C° 0 mm 1 mps 685 mmHg 77%
    06:00 +15°C° 0 mm 1 mps 685 mmHg 68%
    07:00 +18°C° 0 mm 1 mps 686 mmHg 59%
    08:00 +21°C° 0 mm 1 mps 686 mmHg 52%
    09:00 +23°C° 0 mm 1 mps 686 mmHg 45%
    10:00 +26°C° 0 mm 1 mps 686 mmHg 37%
    11:00 +27°C° 0 mm 1 mps 686 mmHg 35%
    12:00 +28°C° 0 mm 1 mps 686 mmHg 33%
    13:00 +30°C° 0 mm 1 mps 685 mmHg 30%
    14:00 +29°C° 0 mm 1 mps 685 mmHg 30%
    15:00 +29°C° 0 mm 1 mps 684 mmHg 31%
    16:00 +29°C° 0 mm 1 mps 684 mmHg 31%
    17:00 +27°C° 0.1 mm 1 mps 684 mmHg 38%
    18:00 +25°C° 0.1 mm 1 mps 683 mmHg 46%
    19:00 +23°C° 0.1 mm 2 mps 683 mmHg 53%
    20:00 +21°C° 0.1 mm 1 mps 683 mmHg 55%
    21:00 +19°C° 0.1 mm 1 mps 683 mmHg 57%
    22:00 +16°C° 0.1 mm 1 mps 683 mmHg 59%
    23:00 +16°C° 0 mm 1 mps 682 mmHg 59%

    24 July, Tuesday

    Time Temperature Precipitation Wind Pressure Humidity
    00:00 +15°C° 0 mm 1 mps 682 mmHg 59%
    01:00 +15°C° 0 mm 1 mps 682 mmHg 59%
    02:00 +14°C° 0 mm 1 mps 682 mmHg 62%
    03:00 +13°C° 0 mm 1 mps 682 mmHg 65%
    04:00 +13°C° 0 mm 1 mps 682 mmHg 68%
    05:00 +15°C° 0 mm 1 mps 682 mmHg 63%
    06:00 +18°C° 0 mm 1 mps 683 mmHg 58%
    07:00 +20°C° 0 mm 1 mps 683 mmHg 53%
    08:00 +23°C° 0 mm 1 mps 683 mmHg 48%
    09:00 +25°C° 0 mm 1 mps 683 mmHg 43%
    10:00 +27°C° 0 mm 2 mps 683 mmHg 38%
    11:00 +28°C° 0 mm 2 mps 683 mmHg 36%
    12:00 +29°C° 0 mm 2 mps 683 mmHg 33%
    13:00 +31°C° 0 mm 2 mps 683 mmHg 31%
    14:00 +31°C° 0 mm 2 mps 682 mmHg 31%
    15:00 +31°C° 0 mm 2 mps 682 mmHg 31%
    16:00 +31°C° 0 mm 2 mps 682 mmHg 31%
    17:00 +29°C° 0 mm 2 mps 682 mmHg 39%
    18:00 +27°C° 0 mm 2 mps 682 mmHg 46%
    19:00 +24°C° 0 mm 1 mps 682 mmHg 53%
    20:00 +23°C° 0 mm 1 mps 681 mmHg 57%
    21:00 +21°C° 0 mm 1 mps 681 mmHg 60%
    22:00 +19°C° 0 mm 1 mps 681 mmHg 63%
    23:00 +18°C° 0.1 mm 1 mps 681 mmHg 66%
    Show more